This is the latest recevied weather packets stored in our database for station/object OK3MS-5. If no packets are shown the sender has not sent any weather packets the latest 1 day(s).
| Time | Temp. | Humidity | Pressure | Rain* | Wind** | Luminosity | Snow |
|---|---|---|---|---|---|---|---|
| 1777997705 | 20.56° C | 54% | 1001.8 hPa | 0 mm | 1.79 m/s, 342° | 169 W/m² | - |
| 1777997405 | 20.56° C | 54% | 1001.9 hPa | 0 mm | 2.24 m/s, 342° | 172 W/m² | - |
| 1777997107 | 20.56° C | 56% | 1001.9 hPa | 0 mm | 0.45 m/s, 316° | 181 W/m² | - |
| 1777996808 | 20° C | 56% | 1002.1 hPa | 0 mm | 0 m/s | 171 W/m² | - |
| 1777996503 | 20° C | 58% | 1002.1 hPa | 0 mm | 0 m/s | 120 W/m² | - |
| 1777996206 | 20° C | 58% | 1002.2 hPa | 0 mm | 0 m/s | 104 W/m² | - |
| 1777995902 | 20° C | 58% | 1002.3 hPa | 0 mm | 0 m/s | 105 W/m² | - |
| 1777995602 | 20° C | 58% | 1002.3 hPa | 0 mm | 0.45 m/s, 282° | 110 W/m² | - |
| 1777995304 | 20° C | 57% | 1002.4 hPa | 0 mm | 0 m/s | 114 W/m² | - |
| 1777995002 | 20.56° C | 55% | 1002.4 hPa | 0 mm | 0 m/s | 121 W/m² | - |
| 1777994703 | 21.11° C | 54% | 1002.3 hPa | 0 mm | 2.24 m/s, 246° | 159 W/m² | - |
| 1777994104 | 21.67° C | 51% | 1002.4 hPa | 0 mm | 0.45 m/s, 298° | 319 W/m² | - |
| 1777993806 | 21.11° C | 53% | 1002.4 hPa | 0 mm | 0.89 m/s, 294° | 349 W/m² | - |
| 1777993503 | 21.67° C | 51% | 1002.3 hPa | 0 mm | 0.45 m/s, 312° | 223 W/m² | - |
| 1777993202 | 22.22° C | 48% | 1002.3 hPa | 0 mm | 0.45 m/s, 185° | 230 W/m² | - |
| 1777992905 | 23.33° C | 41% | 1002.2 hPa | 0 mm | 0 m/s | 238 W/m² | - |
| 1777992604 | 22.78° C | 41% | 1002.3 hPa | 0 mm | 0.89 m/s, 166° | 272 W/m² | - |
| 1777992303 | 22.78° C | 43% | 1002.3 hPa | 0 mm | 0.45 m/s, 166° | 212 W/m² | - |
| 1777992003 | 22.22° C | 42% | 1002.3 hPa | 0 mm | 0.89 m/s, 150° | 115 W/m² | - |
| 1777991705 | 22.78° C | 42% | 1002.2 hPa | 0 mm | 2.24 m/s, 121° | 92 W/m² | - |
| 1777991404 | 22.78° C | 43% | 1002.3 hPa | 0 mm | 0 m/s | 81 W/m² | - |
| 1777991103 | 22.78° C | 43% | 1002.4 hPa | 0 mm | 0.45 m/s, 103° | 97 W/m² | - |
| 1777990806 | 22.78° C | 44% | 1002.4 hPa | 0 mm | 0 m/s | 95 W/m² | - |
| 1777990502 | 22.78° C | 43% | 1002.4 hPa | 0 mm | 0.45 m/s, 126° | 80 W/m² | - |
| 1777990204 | 22.78° C | 42% | 1002.5 hPa | 0 mm | 1.34 m/s, 67° | 71 W/m² | - |
* Rain latest hour (hover to see other rain measurements)
** Current wind speed in m/s (hover to see current wind gust speed)